Regional Weather Roundup
Issued by NWS Kansas City/Pleasant Hill, MO

Home | Current Version | Previous Version | Text Only | Print | Product List | Glossary On
Versions: 1 2 3 4 5 6 7 8 9 10 11 12 13 14 15 16 17 18 19 20 21 22 23 24 25 26 27 28 29 30 31 32 33 34 35 36 37 38 39 40 41 42 43 44 45 46 47 48 49 50
000
ASUS43 KEAX 260311
RWREAX

WEATHER ROUNDUP FOR EASTERN KANSAS AND NORTHWEST MISSOURI
NATIONAL WEATHER SERVICE KANSAS CITY/PLEASANT HILL MO
1000 PM CDT FRI JUL 25 2014

KSZ040-057-103>105-MOZ028-029-037-043-260400-
...KANSAS CITY METROPOLITAN AREA...

CITY           SKY/WX    TMP DP  RH WIND       PRES   REMARKS
K.C. INTL      PTCLDY    86  74  67 SW20      29.79R HX  94
K.C. DOWNTOWN  PTCLDY    88  74  63 SW14G22   29.78R HX  96
LEES SUMMIT    CLEAR     85  74  69 S13G22    29.81R HX  92
OLATHE - IXD   PTCLDY    85  74  69 S16       29.81R HX  92
OLATHE - OJC   PTCLDY    84  74  71 S15G22    29.81R HX  91
LAWRENCE       PTCLDY    89  73  59 S14G24    29.78R HX  97

$$

MOZ001>008-011>017-020>025-030>033-038>040-044>046-053-054-260400-
...NORTHERN AND CENTRAL MISSOURI...

CITY           SKY/WX    TMP DP  RH WIND       PRES   REMARKS
ST. JOSEPH     CLEAR     83  73  72 S6        29.75R
MOSBY          PTCLDY    88  72  58 S12G17    29.78R HX  94
WARRENSBURG    PTCLDY    81  72  74 S12       29.82R
WHITEMAN AFB   CLEAR     84  65  52 SW14      29.82R
CLINTON        CLEAR     84  73  70 S7        29.85R HX  91
SEDALIA        CLEAR     83  69  62 S8        29.85R
WARSAW         NOT AVBL
MARSHALL       CLEAR     84  73  70 S8        29.83R HX  91
CHILLICOTHE      N/A     85  74  69 S9        29.78R HX  92
MOBERLY        CLEAR     75  70  83 E6        29.84R
KIRKSVILLE     CLEAR     73  68  84 S7        29.84R

$$

MOZ041-047>049-056>058-063>065-088>090-097-260400-
...EASTERN AND SOUTHERN MISSOURI...

CITY           SKY/WX    TMP DP  RH WIND       PRES   REMARKS
ST. LOUIS INTL PTCLDY    78  64  61 S8        29.92R
SPIRIT OF STL  CLEAR     76  65  68 SE3       29.90R
COLUMBIA       CLEAR     80  71  74 S8        29.86R
JEFFERSON CITY CLEAR     83  70  64 S5        29.85R
MEXICO         CLEAR     73  73 100 SE5       29.86R
HANNIBAL       MOCLDY    75  64  69 SE6       29.86S
ROLLA          CLEAR     77  67  71 S16       29.88S
LEBANON        CLEAR     77  70  78 S9        29.92S
OSAGE BEACH    CLEAR     81  70  69 S10       29.87R
SPRINGFIELD    CLEAR     78  69  73 S8        29.91R
BRANSON        CLEAR     77  72  83 S3        29.96R
NEVADA         CLEAR     82  72  69 S15       29.87S
JOPLIN         CLEAR     82  70  66 S13       29.90S
WEST PLAINS    PTCLDY    75  68  78 S5        29.97S
MALDEN         PTCLDY    73  66  78 S6        29.96S

$$

IAZ060-094-KSZ022-034>040-054-083-096-NEZ052-066-093-260400-
...KANSAS...SOUTHEAST NEBRASKA AND IOWA...

CITY           SKY/WX    TMP DP  RH WIND       PRES   REMARKS
TOPEKA         CLEAR     90  73  57 S12G20    29.77R HX  98
MANHATTAN      CLEAR     90  68  48 S8        29.77R HX  94
EMPORIA        PTCLDY    85  72  65 S14       29.81R HX  91
CHANUTE        CLEAR     83  73  72 S15G24    29.86R
WICHITA        PTCLDY    86  66  51 S14       29.82R
OMAHA          MOCLDY    83  75  77 NE5       29.77R HX  90
LINCOLN        CLEAR     82  75  79 N6        29.78R
FALLS CITY     CLEAR     87  72  60 W7        29.75R HX  93
LAMONI         PTCLDY    75  71  87 SE8       29.77R
DES MOINES     PTCLDY    78  72  81 E8        29.78R

$$




USA.gov is the U.S. government's official web portal to all federal, state and local government web resources and services.